Home > Weather > Kugluktuk > Past weeks

Flag for Canada Weather for the Past 2 Weeks in Kugluktuk, Nunavut, Canada

Now
32 °F

Light freezing rain. Low clouds.


Feels Like: 25 °F
Forecast: 22 / 28 °F
Wind: 8 mph from Northeast

Location: Coppermine

Current Time: May 5, 2016 at 4:37:20 AM

Latest Report: May 5, 2016 at 4:00 AM


Visibility: 2 mi

Pressure: 29.50 "Hg

Humidity: 100%

Dew Point: 32 °F

Location of KugluktukLocation

Historic Weather in Kugluktuk — Graph

°F

Kugluktuk Temperature Yesterday

Maximum temperature yesterday: 34 °F (at 1:00 AM)
Minimum temperature yesterday: 30 °F (at 5:49 AM)
Average temperature yesterday: 31 °F

High & Low Weather Summary for the Past Weeks

 TemperatureHumidityPressure
High45 °F (May 3, 3:00 PM)100% (Apr 29, 2:00 AM)30.61 "Hg (Apr 29, 2:00 AM)
Low-11 °F (Apr 20, 5:00 AM)63% (Apr 27, 1:00 PM)29.52 "Hg (May 5, 3:00 AM)
Average15 °F85%30.19 "Hg
* Reported Apr 20 3:00 AM — May 5 3:00 AM, Kugluktuk, Weather by CustomWeather, © 2016

Note: Actual official high and low records may vary slightly from our data, if they occured in-between our weather recording intervals... More about our weather records

Advertising

Kugluktuk Weather History for the Previous 24 Hours

Scroll right to see more
 ConditionsComfort  
Time TempWeatherWind HumidityBarometerVisibility
3:00 AM
Thu, May 5
32 °FLight snow. Low clouds.13 mph100%29.52 "Hg1 mi
2:00 AM32 °FLight snow. Low clouds.12 mph100%29.55 "Hg1 mi
1:47 AM32 °FLight snow. Low clouds.15 mph100%29.54 "Hg1 mi
1:00 AM32 °FLight snow. Low clouds.13 mph100%29.57 "Hg1 mi
12:00 AM30 °FLight snow. Low clouds.15 mph100%29.60 "Hg1 mi
11:00 PM
Wed, May 4
30 °FLight snow. Low clouds.9 mph100%29.64 "Hg1 mi
10:00 PM30 °FLight snow. Low clouds.7 mph100%29.67 "Hg2 mi
9:00 PM30 °FSleet. Ice fog.6 mph100%29.69 "Hg2 mi
8:00 PM30 °FIce fog.9 mph100%29.71 "Hg1 mi
7:00 PM30 °FIce fog.8 mph100%29.72 "Hg5 mi
6:00 PM30 °FIce fog.5 mph100%29.73 "Hg3 mi
5:00 PM30 °FFog.7 mph100%29.74 "Hg10 mi
4:00 PM32 °FFog.7 mph93%29.75 "Hg10 mi
3:00 PM32 °FFog.5 mph93%29.75 "Hg12 mi
2:00 PM32 °FFog.6 mph93%29.75 "Hg8 mi
1:55 PM32 °FFog.7 mph93%29.75 "Hg8 mi
1:00 PM32 °FFog.9 mph93%29.74 "Hg8 mi
12:00 PM30 °FIce fog.7 mph100%29.75 "Hg4 mi
11:00 AM32 °FIce fog.6 mph93%29.75 "Hg5 mi
10:00 AM32 °FFog.7 mph93%29.74 "Hg7 mi
9:53 AM32 °FFog.7 mph93%29.74 "Hg8 mi
9:00 AM32 °FLow clouds.5 mph93%29.74 "Hg15 mi
8:00 AM30 °FLow clouds.5 mph93%29.74 "Hg15 mi
7:00 AM32 °FLow clouds.5 mph93%29.75 "Hg15 mi
6:00 AM32 °FLow clouds.7 mph93%29.74 "Hg15 mi
5:49 AM30 °FMostly cloudy.6 mph100%29.73 "Hg15 mi
5:00 AM32 °FLow clouds.8 mph93%29.71 "Hg15 mi
4:00 AM32 °FMostly cloudy.6 mph100%29.72 "Hg15 mi
Weather by CustomWeather, © 2016

See weather overviewHow to use our weather pages